Location: Helion Bumpstead
(52.0500°N, 0.4000°E)
Time: 20:59:54
(UTC+00:00)

SJ 16-02 - Pass Details

Date: 15 November 2025
Orbit: 585 x 594 km, 75.0° (Epoch: 06 December)

Event Time Altitude Azimuth Distance (km) Brightness Sun altitude
Exits shadow 05:27:34 30° 253° (WSW) 1,067 2.1 -16.9°
Drops below altitude 10° 05:31:07 10° 197° (SSW) 1,912 3.8 -16.3°
Sets 05:33:30 0° 186° (S) 2,806 4.8 -16.0°
